EW3476 Weather Reports


time (UTC)temp
C
wind
direction
speed
KPH
gust
KPH
rain 1hr
cm
rain 24hr
cm
rain mn
cm
humidity
%
barometer
mb
20260505111803 15 49 6.4 17.7 0.00 0.28 0.28 95 1006.8
20260505110903 15 345 1.6 6.4 0.00 0.28 0.28 95 1008.2
20260505102016 15 333 3.2 17.7 0.03 0.28 0.28 94 1007.7
20260505100903 15 249 1.6 4.8 0.03 0.28 0.28 94 1006.9
20260505100217 15 249 0.0 1.6 0.03 0.28 0.28 94 1006.9
20260505095403 15 249 0.0 3.2 0.05 0.28 0.28 93 1006.5
20260505094503 15 249 0.0 3.2 0.08 0.28 0.28 93 1006.7
20260505093603 15 226 0.0 6.4 0.10 0.28 0.28 92 1006.5
20260505092703 15 196 4.8 12.9 0.15 0.28 0.28 92 1006.1
20260505092018 15 172 9.7 19.3 0.15 0.25 0.25 92 1005.6
20260505090903 15 163 9.7 17.7 0.18 0.25 0.25 91 1004.9
20260505090003 16 150 4.8 16.1 0.18 0.23 0.23 92 1006.0
20260505085616 16 110 3.2 8.0 0.20 0.23 0.23 91 1006.4
20260505084503 16 338 1.6 4.8 0.20 0.20 0.20 90 1007.4
20260505083603 16 357 1.6 6.4 0.18 0.18 0.18 89 1007.9
20260505082703 16 145 1.6 8.0 0.13 0.13 0.13 88 1007.6
20260505081803 17 346 3.2 9.7 0.08 0.08 0.08 87 1007.4
20260505081117 17 337 3.2 14.5 0.08 0.08 0.08 86 1007.3
20260505080003 17 312 3.2 14.5 0.05 0.05 0.05 84 1006.8
20260505075403 17 207 3.2 14.5 0.03 0.03 0.03 82 1007.0
20260505074503 17 195 3.2 12.9 0.00 0.00 0.00 80 1007.1
20260505073603 17 181 3.2 11.3 0.00 0.00 0.00 79 1007.0
20260505072703 17 172 3.2 9.7 0.00 0.00 0.00 78 1007.0
20260505072017 17 182 3.2 12.9 0.00 0.00 0.00 77 1007.0
20260505070903 17 173 4.8 11.3 0.00 0.00 0.00 77 1007.0
20260505070003 17 177 4.8 11.3 0.00 0.00 0.00 77 1006.8
20260505065403 17 173 3.2 12.9 0.00 0.00 0.00 76 1006.8
20260505064503 17 176 3.2 12.9 0.00 0.00 0.00 76 1007.0
20260505063603 17 173 3.2 8.0 0.00 0.00 0.00 77 1007.4
20260505062703 17 186 3.2 6.4 0.00 0.00 0.00 77 1007.6
20260505061803 17 171 3.2 9.7 0.00 0.00 0.00 76 1007.6
20260505061118 17 173 3.2 9.7 0.00 0.00 0.00 77 1007.6
20260505060003 17 169 3.2 9.7 0.00 0.00 0.00 76 1007.6
20260505055403 17 170 3.2 9.7 0.00 0.00 0.00 76 1007.6
20260505054503 17 166 3.2 9.7 0.00 0.00 0.00 76 1007.6
20260505053603 17 177 3.2 14.5 0.00 0.00 0.00 76 1007.5
20260505052703 17 172 4.8 16.1 0.00 0.00 0.00 76 1007.6
20260505052016 17 171 4.8 9.7 0.00 0.00 0.00 75 1007.5
20260505050903 17 172 3.2 11.3 0.00 0.00 0.00 75 1007.7
20260505040903 18 176 1.6 6.4 0.00 0.00 0.00 72 1008.3
20260505040004 18 164 1.6 6.4 0.00 0.00 0.00 72 1008.5
20260505035403 18 161 1.6 3.2 0.00 0.00 0.00 72 1008.6
20260505034503 19 179 1.6 8.0 0.00 0.00 0.00 71 1008.7
20260505033817 19 195 1.6 9.7 0.00 0.00 0.00 70 1008.7
20260505032703 19 172 1.6 9.7 0.00 0.00 0.00 70 1008.7
20260505031803 20 182 3.2 12.9 0.00 0.00 0.00 69 1008.7
20260505030903 20 178 3.2 16.1 0.00 0.00 0.00 69 1008.6
20260505030003 20 171 3.2 14.5 0.00 0.00 0.00 69 1008.6
20260505025403 20 174 3.2 11.3 0.00 0.00 0.00 69 1008.7
20260505024503 20 178 3.2 14.5 0.00 0.00 0.00 68 1008.5
20260505023603 20 175 3.2 14.5 0.00 0.00 0.00 68 1008.3
20260505022703 20 173 4.8 12.9 0.00 0.00 0.00 68 1008.2
20260505021803 20 176 3.2 9.7 0.00 0.00 0.00 68 1008.1
20260505020903 20 167 1.6 16.1 0.00 0.00 0.00 68 1008.0
20260505020003 20 178 1.6 8.0 0.00 0.00 0.00 67 1007.9
20260505015403 21 170 1.6 8.0 0.00 0.00 0.00 66 1007.8
20260505014503 21 183 1.6 6.4 0.00 0.00 0.00 65 1007.7
20260505013603 21 172 1.6 8.0 0.00 0.00 0.00 64 1007.5
20260505012703 21 177 1.6 12.9 0.00 0.00 0.00 64 1007.3
20260505011803 21 180 1.6 8.0 0.00 0.00 0.00 63 1007.1
20260505010903 22 184 1.6 6.4 0.00 0.00 0.00 62 1007.0
20260505010003 22 188 1.6 6.4 0.00 0.00 0.00 60 1007.1
20260505005617 22 181 1.6 6.4 0.00 0.00 0.00 59 1007.0
20260505004503 22 178 1.6 6.4 0.00 0.00 0.00 57 1007.0
20260505003818 23 173 0.0 4.8 0.00 0.00 0.00 57 1006.9
20260505002703 23 170 1.6 17.7 0.00 0.00 0.00 56 1006.8
20260505001803 23 179 3.2 17.7 0.00 0.00 0.00 54 1006.7
20260505001118 23 173 3.2 9.7 0.00 0.00 0.00 54 1006.8
20260505000003 24 173 4.8 14.5 0.00 0.00 0.00 52 1006.8
20260504235403 24 172 4.8 16.1 0.00 0.00 0.00 52 1006.7
20260504234503 25 177 4.8 16.1 0.00 0.00 0.00 50 1006.7
20260504233603 25 175 4.8 14.5 0.00 0.00 0.00 49 1006.5
20260504232703 26 178 6.4 25.7 0.00 0.00 0.00 48 1006.5
20260504231803 26 175 8.0 25.7 0.00 0.00 0.00 46 1006.7
20260504230903 26 171 9.7 27.4 0.00 0.00 0.00 46 1006.7
20260504230003 27 171 8.0 20.9 0.00 0.00 0.00 46 1006.7
20260504225403 27 176 8.0 20.9 0.00 0.00 0.00 46 1006.7
20260504224503 27 177 6.4 16.1 0.00 0.00 0.00 46 1006.8
20260504223603 27 177 4.8 17.7 0.00 0.00 0.00 47 1006.8
20260504222703 27 175 8.0 24.1 0.00 0.00 0.00 46 1006.8
20260504222018 27 177 6.4 19.3 0.00 0.00 0.00 46 1006.8
20260504220903 27 171 8.0 22.5 0.00 0.00 0.00 48 1006.8
20260504220003 27 177 8.0 22.5 0.00 0.00 0.00 49 1006.9
20260504215403 27 174 6.4 22.5 0.00 0.00 0.00 47 1006.9
20260504214503 27 180 8.0 22.5 0.00 0.00 0.00 47 1006.9
20260504213603 27 175 9.7 24.1 0.00 0.00 0.00 50 1007.1
20260504212703 27 171 9.7 33.8 0.00 0.00 0.00 45 1007.1
20260504211803 27 177 6.4 16.1 0.00 0.00 0.00 46 1007.2
20260504210903 27 172 8.0 25.7 0.00 0.00 0.00 46 1007.3
20260504210004 28 175 8.0 27.4 0.00 0.00 0.00 46 1007.4
20260504205403 28 179 6.4 19.3 0.00 0.00 0.00 46 1007.5
20260504204503 28 173 8.0 17.7 0.00 0.00 0.00 46 1007.5
20260504203603 28 172 6.4 19.3 0.00 0.00 0.00 50 1007.6
20260504202703 28 173 9.7 32.2 0.00 0.00 0.00 47 1007.8
20260504201803 28 176 8.0 29.0 0.00 0.00 0.00 48 1008.0
20260504200903 27 175 6.4 24.1 0.00 0.00 0.00 48 1008.0
20260504200218 27 174 9.7 24.1 0.00 0.00 0.00 46 1008.1
20260504195617 27 173 8.0 19.3 0.00 0.00 0.00 47 1008.1
20260504194503 27 174 6.4 19.3 0.00 0.00 0.00 47 1008.2
20260504193603 27 182 4.8 22.5 0.00 0.00 0.00 48 1008.3
20260504192703 27 178 6.4 20.9 0.00 0.00 0.00 48 1008.4
20260504191803 27 170 8.0 22.5 0.00 0.00 0.00 50 1008.4
20260504190903 27 178 8.0 22.5 0.00 0.00 0.00 46 1008.5
20260504190003 27 177 8.0 22.5 0.00 0.00 0.00 47 1008.4
20260504185403 27 176 9.7 38.6 0.00 0.00 0.00 51 1008.4
20260504184716 27 170 9.7 38.6 0.00 0.00 0.00 47 1008.4
20260504183603 27 172 9.7 25.7 0.00 0.00 0.00 48 1008.6
20260504182703 27 171 9.7 27.4 0.00 0.00 0.00 49 1008.6
20260504181803 27 166 11.3 32.2 0.00 0.00 0.00 49 1008.5
20260504180903 27 168 9.7 30.6 0.00 0.00 0.00 47 1008.5
20260504180003 27 171 8.0 20.9 0.00 0.00 0.00 49 1008.6
20260504175403 27 171 9.7 22.5 0.00 0.00 0.00 50 1008.8
20260504174503 27 174 8.0 20.9 0.00 0.00 0.00 47 1008.9
20260504173818 27 176 6.4 20.9 0.00 0.00 0.00 49 1009.0
20260504172703 26 175 8.0 22.5 0.00 0.00 0.00 50 1009.0
20260504171803 26 175 6.4 22.5 0.00 0.00 0.00 49 1008.9
20260504170903 26 180 8.0 20.9 0.00 0.00 0.00 49 1009.0
20260504150903 23 178 8.0 25.7 0.00 0.00 0.00 51 1010.1
20260504140903 21 171 4.8 17.7 0.00 0.00 0.00 58 1010.9